User: anonymous   Login
Location: Girdwood
(60.9430°N, 149.1660°W)
Time: 16:10:16
(UTC-08:00)
Language:

Iridium 86 - Orbit

View from above orbital plane
View from above orbital plane
View from above satellite
View from above satellite

Ground track
Ground track

The orbit data is extracted from the following two-line orbital elements,

1 25528U 98066B   15185.45104067  .00000274  00000-0  90877-4 0  9996
2 25528 086.3965 288.1722 0002394 102.0322 258.1142 14.34218230877068
Epoch (UTC): 04 July 2015 10:49:29
Eccentricity: 0.0002394
inclination: 86.3965°
perigee height: 776 km
apogee height: 779 km
right ascension of ascending node: 288.1722°
argument of perigee: 102.0322°
revolutions per day: 14.34218230
mean anomaly at epoch: 258.1142°
orbit number at epoch: 87706

The dashed part of the orbit path shows where the satellite is in the earth's shadow,  

DLR